"startDT [UTC]","vpos","CH4 [ppm]","stdev(CH4) [ppm]","CO2 [ppm]","stdev(CO2) [ppm]","H2O [ppm]","stdev(H2O)","p_LGR [torr]","T_LGR [C]","mt1_LGR [us]","mt2_LGR [us]","T_ECpre [C]","T_EC1 [C]","T_EC2 [C]","p_inlet [hPa]","p_in [hPa]","p_out [hPa]","T_inlet [C]","RH_inlet [%]","dwpt_inlet [C]","T_vent [C]","RH_vent [%]","dwpt_vent [C]","flow_vent [l min-1]","flow_inlet [l min-1]","dwpt_sample [C]","T_room [C]"
2012-11-13 00:00:00,0.0,1.9155,0.0009,399.28,0.25,183.8,30.7,138.04,31.60,24.66,36.43,0.04,-272.75,-272.75,-47,568,-946,25.4,3.0,-23.0,25.7,3.0,-22.6,5.73,2.40,-24.2,30.6
2012-11-13 00:01:00,0.0,1.9150,0.0011,399.28,0.16,181.5,32.4,138.04,31.60,24.66,36.43,0.04,-272.75,-272.75,-47,568,-945,25.4,3.0,-23.0,25.7,3.0,-22.6,5.73,2.36,-24.3,30.6
2012-11-13 00:02:00,0.0,1.9156,0.0009,399.26,0.20,182.6,35.8,138.04,31.60,24.65,36.43,0.04,-272.75,-272.75,-47,568,-945,25.4,3.0,-23.0,25.6,3.0,-22.7,5.73,2.35,-24.3,30.5
2012-11-13 00:03:00,0.0,1.9158,0.0010,399.29,0.17,179.0,34.0,138.04,31.60,24.65,36.42,0.04,-272.75,-272.75,-47,568,-945,25.3,3.0,-23.0,25.6,3.0,-22.7,5.73,2.37,-24.3,30.5
2012-11-13 00:04:00,0.0,1.9154,0.0009,399.27,0.22,177.8,31.8,138.04,31.60,24.65,36.43,0.04,-272.75,-272.75,-47,568,-945,25.3,3.0,-23.0,25.6,3.0,-22.7,5.73,2.40,-24.3,30.5
2012-11-13 00:05:00,0.0,1.9157,0.0010,399.26,0.19,178.6,30.6,138.04,31.60,24.65,36.43,0.04,-272.75,-272.75,-47,568,-945,25.3,2.9,-23.2,25.6,3.0,-22.8,5.73,2.42,-24.3,30.6
2012-11-13 00:06:00,0.0,1.9152,0.0011,399.26,0.19,178.7,27.8,138.04,31.59,24.66,36.43,0.04,-272.75,-272.75,-47,568,-945,25.3,2.9,-23.2,25.6,3.0,-22.8,5.73,2.41,-24.3,30.6
2012-11-13 00:07:00,0.0,1.9150,0.0010,399.37,0.18,184.4,31.7,138.04,31.59,24.66,36.42,0.04,-272.75,-272.75,-47,567,-945,25.3,2.9,-23.2,25.6,3.0,-22.9,5.73,2.36,-24.3,30.6
2012-11-13 00:08:00,0.0,1.9156,0.0010,399.39,0.20,182.2,30.2,138.04,31.59,24.66,36.42,0.04,-272.75,-272.75,-47,568,-945,25.3,2.9,-23.3,25.6,2.9,-22.9,5.73,2.33,-24.3,30.6
2012-11-13 00:09:00,0.0,1.9157,0.0010,399.34,0.27,180.9,30.6,138.04,31.59,24.66,36.42,0.04,-272.75,-272.74,-47,568,-945,25.3,2.9,-23.3,25.6,2.9,-23.0,5.73,2.37,-24.3,30.6
2012-11-13 00:10:00,0.0,1.9155,0.0010,399.33,0.21,179.5,34.1,138.04,31.59,24.65,36.42,0.04,-272.75,-272.75,-47,568,-945,25.3,2.9,-23.4,25.6,2.9,-23.0,5.73,2.42,-24.3,30.6
2012-11-13 00:11:00,0.0,1.9152,0.0009,399.23,0.19,185.5,38.5,138.04,31.59,24.66,36.43,0.04,-272.75,-272.75,-47,567,-945,25.4,2.9,-23.4,25.6,2.9,-23.1,5.73,2.42,-24.3,30.7
2012-11-13 00:12:00,0.0,1.9156,0.0010,399.22,0.23,185.1,33.2,138.04,31.60,24.66,36.43,0.04,-272.74,-272.75,-47,568,-945,25.4,2.9,-23.4,25.7,2.9,-23.1,5.73,2.36,-24.2,30.7
2012-11-13 00:13:00,0.0,1.9156,0.0009,399.34,0.18,174.6,36.3,138.04,31.60,24.66,36.42,0.04,-272.75,-272.75,-47,568,-945,25.4,2.8,-23.5,25.6,2.9,-23.2,5.73,2.33,-24.2,30.7
2012-11-13 00:14:00,0.0,1.9161,0.0011,399.32,0.18,188.6,32.5,138.04,31.60,24.65,36.42,0.04,-272.75,-272.75,-47,568,-945,25.4,2.8,-23.5,25.7,2.9,-23.2,5.73,2.37,-24.2,30.7
2012-11-13 00:15:00,0.0,1.9161,0.0011,399.28,0.21,186.6,32.9,138.04,31.60,24.66,36.43,0.04,-272.75,-272.75,-47,568,-945,25.5,2.8,-23.6,25.7,2.9,-23.2,5.73,2.42,-24.2,30.7
2012-11-13 00:16:00,0.0,1.9167,0.0009,399.36,0.18,193.9,33.6,138.04,31.60,24.65,36.42,0.04,-272.75,-272.75,-47,568,-945,25.5,2.8,-23.6,25.7,2.8,-23.3,5.73,2.42,-24.2,30.7
2012-11-13 00:17:00,0.0,1.9174,0.0008,399.35,0.20,191.0,36.5,138.04,31.60,24.66,36.43,0.04,-272.75,-272.75,-47,568,-945,25.5,2.8,-23.7,25.7,2.8,-23.4,5.73,2.36,-24.2,30.8
2012-11-13 00:18:00,0.0,1.9183,0.0010,399.42,0.18,188.9,33.9,138.04,31.61,24.65,36.43,0.04,-272.75,-272.75,-47,568,-945,25.5,2.8,-23.7,25.7,2.8,-23.4,5.73,2.33,-24.2,30.7
2012-11-13 00:19:00,0.0,1.9174,0.0009,399.35,0.20,180.8,28.2,138.04,31.61,24.66,36.43,0.04,-272.75,-272.75,-47,568,-945,25.5,2.8,-23.7,25.7,2.8,-23.4,5.73,2.38,-24.2,30.7
2012-11-13 00:20:00,0.0,1.9169,0.0009,399.36,0.20,185.6,32.1,138.04,31.61,24.65,36.43,0.04,-272.75,-272.75,-47,568,-945,25.5,2.7,-23.8,25.7,2.8,-23.5,5.73,2.42,-24.2,30.7
2012-11-13 00:21:00,0.0,1.9172,0.0010,399.49,0.22,181.0,28.1,138.04,31.61,24.65,36.42,0.04,-272.75,-272.75,-47,568,-945,25.5,2.7,-23.9,25.7,2.8,-23.5,5.73,2.41,-24.3,30.7
2012-11-13 00:22:00,0.0,1.9167,0.0008,399.42,0.19,177.3,35.3,138.04,31.61,24.66,36.42,0.04,-272.74,-272.75,-47,568,-945,25.4,2.7,-23.9,25.7,2.8,-23.5,5.73,2.38,-24.3,30.6
2012-11-13 00:23:00,0.0,1.9168,0.0010,399.35,0.26,183.7,33.2,138.04,31.61,24.65,36.43,0.04,-272.75,-272.75,-47,568,-945,25.4,2.7,-24.0,25.7,2.8,-23.6,5.73,2.35,-24.3,30.7
2012-11-13 00:24:00,0.0,1.9167,0.0009,399.42,0.20,173.9,27.8,138.04,31.61,24.65,36.42,0.04,-272.75,-272.75,-47,568,-945,25.4,2.7,-23.9,25.6,2.8,-23.7,5.73,2.35,-24.4,30.7
2012-11-13 00:25:00,0.0,1.9173,0.0012,399.35,0.16,171.8,33.7,138.04,31.61,24.65,36.43,0.04,-272.75,-272.75,-47,568,-945,25.3,2.7,-24.0,25.6,2.8,-23.7,5.73,2.38,-24.4,30.7
2012-11-13 00:26:00,0.0,1.9168,0.0010,399.38,0.22,177.4,32.8,138.04,31.61,24.66,36.43,0.04,-272.75,-272.75,-47,568,-945,25.3,2.7,-24.0,25.6,2.8,-23.7,5.73,2.43,-24.4,30.7
2012-11-13 00:27:00,0.0,1.9166,0.0010,399.34,0.17,168.0,32.6,138.04,31.61,24.66,36.43,0.04,-272.75,-272.75,-47,568,-945,25.4,2.7,-24.1,25.6,2.7,-23.7,5.73,2.42,-24.3,30.7
2012-11-13 00:28:00,0.0,1.9161,0.0010,399.28,0.23,168.8,34.3,138.04,31.61,24.66,36.43,0.04,-272.75,-272.75,-47,568,-945,25.4,2.7,-24.1,25.6,2.7,-23.7,5.73,2.36,-24.3,30.7
2012-11-13 00:29:00,0.0,1.9166,0.0010,399.29,0.18,173.5,29.4,138.04,31.61,24.65,36.43,0.04,-272.75,-272.75,-47,568,-945,25.4,2.7,-24.1,25.7,2.7,-23.7,5.73,2.33,-24.3,30.7
2012-11-13 00:30:00,0.0,1.9168,0.0008,399.25,0.20,184.4,31.3,138.04,31.61,24.65,36.43,0.04,-272.75,-272.75,-47,568,-945,25.4,2.7,-24.1,25.7,2.7,-23.7,5.73,2.37,-24.3,30.7
2012-11-13 00:31:00,0.0,1.9166,0.0010,399.30,0.23,177.7,28.9,138.04,31.61,24.65,36.43,0.04,-272.75,-272.75,-47,568,-945,25.4,2.7,-24.2,25.7,2.7,-23.8,5.73,2.42,-24.3,30.8
2012-11-13 00:32:00,0.0,1.9169,0.0012,399.35,0.20,177.9,30.3,138.04,31.61,24.65,36.42,0.04,-272.75,-272.75,-47,568,-945,25.5,2.7,-24.2,25.7,2.7,-23.9,5.73,2.41,-24.3,30.8
2012-11-13 00:33:00,0.0,1.9175,0.0008,399.37,0.24,187.0,32.2,138.04,31.61,24.65,36.42,0.04,-272.75,-272.75,-47,568,-945,25.5,2.7,-24.2,25.7,2.7,-23.9,5.73,2.35,-24.3,30.8
2012-11-13 00:34:00,0.0,1.9186,0.0010,399.41,0.18,180.8,26.9,138.04,31.61,24.65,36.42,0.04,-272.75,-272.75,-47,568,-945,25.5,2.6,-24.3,25.7,2.7,-23.9,5.73,2.33,-24.3,30.8
2012-11-13 00:35:00,0.0,1.9179,0.0010,399.29,0.22,177.3,30.8,138.04,31.61,24.66,36.44,0.04,-272.75,-272.75,-47,568,-945,25.5,2.6,-24.3,25.7,2.7,-24.0,5.73,2.38,-24.3,30.8
2012-11-13 00:36:00,0.0,1.9178,0.0010,399.35,0.25,178.6,32.9,138.04,31.62,24.65,36.43,0.04,-272.75,-272.75,-47,568,-945,25.5,2.6,-24.4,25.7,2.7,-24.0,5.73,2.43,-24.3,30.8
2012-11-13 00:37:00,0.0,1.9175,0.0013,399.40,0.21,179.8,25.9,138.04,31.62,24.66,36.42,0.04,-272.75,-272.75,-47,568,-945,25.5,2.6,-24.4,25.7,2.6,-24.1,5.73,2.40,-24.3,30.8
2012-11-13 00:38:00,0.0,1.9175,0.0009,399.44,0.28,181.0,31.5,138.04,31.62,24.66,36.42,0.04,-272.74,-272.75,-47,568,-946,25.5,2.6,-24.5,25.7,2.6,-24.2,5.73,2.34,-24.3,30.9
2012-11-13 00:39:00,0.0,1.9173,0.0009,399.31,0.21,174.6,31.1,138.04,31.62,24.66,36.43,0.04,-272.75,-272.75,-47,568,-945,25.5,2.6,-24.5,25.7,2.6,-24.3,5.73,2.34,-24.3,30.8
2012-11-13 00:40:00,0.0,1.9169,0.0008,399.40,0.23,182.3,34.0,138.04,31.63,24.65,36.42,0.04,-272.75,-272.75,-47,568,-946,25.5,2.6,-24.5,25.7,2.6,-24.3,5.73,2.39,-24.3,30.7
2012-11-13 00:41:00,0.0,1.9164,0.0011,399.26,0.18,180.2,35.3,138.04,31.62,24.66,36.43,0.04,-272.75,-272.75,-47,568,-945,25.5,2.5,-24.7,25.7,2.6,-24.3,5.73,2.42,-24.4,30.7
2012-11-13 00:42:00,0.0,1.9169,0.0012,399.37,0.20,171.9,29.6,138.04,31.62,24.66,36.43,0.04,-272.75,-272.75,-47,568,-945,25.4,2.5,-24.7,25.7,2.6,-24.4,5.73,2.41,-24.4,30.7
2012-11-13 00:43:00,0.0,1.9189,0.0009,399.50,0.23,164.5,31.8,138.04,31.62,24.66,36.42,0.04,-272.74,-272.75,-47,568,-945,25.4,2.5,-24.8,25.6,2.6,-24.4,5.73,2.39,-24.5,30.7
2012-11-13 00:44:00,0.0,1.9183,0.0009,399.48,0.19,160.1,33.9,138.04,31.62,24.66,36.42,0.04,-272.75,-272.75,-47,568,-945,25.3,2.5,-24.9,25.6,2.6,-24.5,5.73,2.35,-24.5,30.7
2012-11-13 00:45:00,0.0,1.9190,0.0011,399.44,0.17,160.1,29.5,138.04,31.62,24.66,36.43,0.04,-272.75,-272.75,-47,568,-945,25.3,2.5,-24.9,25.6,2.5,-24.6,5.73,2.34,-24.5,30.7
2012-11-13 00:46:00,0.0,1.9189,0.0009,399.45,0.20,173.8,32.9,138.04,31.62,24.66,36.43,0.04,-272.75,-272.75,-47,568,-945,25.3,2.5,-25.0,25.6,2.5,-24.6,5.73,2.38,-24.5,30.7
2012-11-13 00:47:00,0.0,1.9182,0.0010,399.47,0.21,166.1,29.3,138.04,31.62,24.66,36.42,0.04,-272.75,-272.75,-47,568,-945,25.3,2.5,-25.0,25.6,2.5,-24.7,5.73,2.43,-24.5,30.7
2012-11-13 00:48:00,0.0,1.9177,0.0008,399.39,0.24,171.8,27.5,138.04,31.61,24.65,36.42,0.04,-272.75,-272.75,-47,568,-945,25.4,2.5,-25.0,25.6,2.5,-24.7,5.73,2.41,-24.5,30.7
2012-11-13 00:49:00,0.0,1.9173,0.0009,399.35,0.23,170.9,33.9,138.04,31.61,24.66,36.43,0.04,-272.75,-272.75,-47,567,-945,25.4,2.5,-25.1,25.6,2.5,-24.7,5.73,2.36,-24.5,30.7
2012-11-13 00:50:00,0.0,1.9183,0.0009,399.37,0.21,162.3,28.7,138.04,31.61,24.66,36.43,0.04,-272.75,-272.75,-47,568,-945,25.4,2.5,-25.1,25.6,2.5,-24.8,5.73,2.33,-24.5,30.8
2012-11-13 00:51:00,0.0,1.9186,0.0009,399.37,0.20,165.0,26.1,138.04,31.61,24.66,36.43,0.04,-272.75,-272.75,-47,568,-945,25.4,2.4,-25.3,25.6,2.5,-24.9,5.73,2.37,-24.5,30.7
2012-11-13 00:52:00,0.0,1.9196,0.0010,399.49,0.21,164.5,38.4,138.04,31.62,24.65,36.42,0.04,-272.74,-272.75,-47,568,-945,25.4,2.4,-25.3,25.7,2.5,-24.9,5.73,2.43,-24.5,30.7
2012-11-13 00:53:00,0.0,1.9194,0.0011,399.51,0.21,170.4,34.8,138.04,31.62,24.65,36.42,0.04,-272.75,-272.75,-47,568,-945,25.5,2.4,-25.4,25.7,2.4,-25.0,5.73,2.41,-24.5,30.7
2012-11-13 00:54:00,0.0,1.9187,0.0011,399.40,0.21,172.8,34.5,138.04,31.62,24.65,36.43,0.04,-272.75,-272.75,-47,568,-945,25.5,2.4,-25.4,25.7,2.4,-25.2,5.73,2.35,-24.5,30.7
2012-11-13 00:55:00,0.0,1.9180,0.0008,399.49,0.22,170.4,31.5,138.04,31.62,24.66,36.42,0.04,-272.75,-272.75,-47,568,-945,25.5,2.4,-25.5,25.7,2.4,-25.2,5.73,2.34,-24.5,30.8
2012-11-13 00:56:00,0.0,1.9182,0.0010,399.28,0.22,169.1,31.7,138.04,31.62,24.66,36.44,0.04,-272.75,-272.75,-47,568,-945,25.5,2.3,-25.5,25.7,2.4,-25.3,5.73,2.39,-24.5,30.7
2012-11-13 00:57:00,0.0,1.9175,0.0012,399.38,0.24,159.8,32.6,138.04,31.62,24.65,36.43,0.04,-272.75,-272.75,-47,568,-946,25.4,2.3,-25.6,25.7,2.4,-25.3,5.73,2.41,-24.6,30.7
2012-11-13 00:58:00,0.0,1.9189,0.0012,399.38,0.23,158.4,27.7,138.04,31.62,24.65,36.43,0.04,-272.75,-272.75,-47,568,-945,25.4,2.3,-25.8,25.7,2.4,-25.4,5.73,2.42,-24.6,30.6
2012-11-13 00:59:00,0.0,1.9196,0.0008,399.52,0.21,152.9,32.5,138.04,31.62,24.66,36.42,0.04,-272.75,-272.74,-47,568,-945,25.4,2.3,-25.7,25.6,2.3,-25.5,5.73,2.40,-24.7,30.6
2012-11-13 01:00:00,0.0,1.9181,0.0011,399.46,0.19,165.4,24.5,138.04,31.63,24.66,36.42,0.04,-272.75,-272.75,-47,568,-945,25.4,2.3,-25.8,25.6,2.3,-25.6,5.73,2.35,-24.7,30.6
2012-11-13 01:01:00,0.0,1.9178,0.0012,399.42,0.25,161.0,31.5,138.04,31.63,24.65,36.42,0.04,-272.75,-272.75,-47,568,-945,25.4,2.3,-25.9,25.6,2.3,-25.6,5.73,2.34,-24.7,30.6
2012-11-13 01:02:00,0.0,1.9157,0.0010,399.37,0.18,161.8,32.3,138.04,31.63,24.66,36.42,0.04,-272.75,-272.74,-47,568,-945,25.4,2.3,-25.9,25.6,2.3,-25.6,5.73,2.38,-24.7,30.7
2012-11-13 01:03:00,0.0,1.9157,0.0010,399.28,0.23,162.4,31.0,138.04,31.62,24.66,36.43,0.04,-272.75,-272.75,-47,568,-945,25.4,2.3,-25.9,25.6,2.3,-25.7,5.73,2.42,-24.7,30.7
2012-11-13 01:04:00,0.0,1.9163,0.0009,399.30,0.21,156.0,30.3,138.04,31.62,24.66,36.43,0.04,-272.75,-272.75,-47,568,-945,25.4,2.3,-26.0,25.6,2.3,-25.7,5.73,2.42,-24.7,30.7
2012-11-13 01:05:00,0.0,1.9165,0.0010,399.29,0.23,167.0,30.3,138.04,31.62,24.65,36.43,0.04,-272.75,-272.75,-47,567,-945,25.4,2.3,-26.0,25.6,2.3,-25.8,5.73,2.36,-24.7,30.7
2012-11-13 01:06:00,0.0,1.9164,0.0010,399.37,0.21,161.1,31.2,138.04,31.62,24.66,36.42,0.04,-272.74,-272.75,-47,568,-945,25.4,2.3,-26.0,25.7,2.3,-25.8,5.73,2.33,-24.7,30.7
2012-11-13 01:07:00,0.0,1.9167,0.0012,399.47,0.23,161.5,26.2,138.04,31.62,24.66,36.42,0.04,-272.75,-272.75,-47,568,-945,25.4,2.2,-26.1,25.7,2.3,-25.8,5.73,2.38,-24.7,30.7
2012-11-13 01:08:00,0.0,1.9166,0.0009,399.37,0.19,157.1,31.2,138.04,31.63,24.66,36.42,0.04,-272.75,-272.75,-47,568,-945,25.4,2.2,-26.1,25.7,2.3,-25.8,5.73,2.43,-24.7,30.7
2012-11-13 01:09:00,0.0,1.9161,0.0010,399.23,0.17,154.3,31.8,138.04,31.63,24.65,36.43,0.04,-272.75,-272.75,-47,568,-945,25.4,2.2,-26.2,25.6,2.3,-25.8,5.73,2.42,-24.7,30.6
2012-11-13 01:10:00,0.0,1.9159,0.0012,399.33,0.19,155.1,32.5,138.04,31.63,24.66,36.43,0.04,-272.75,-272.75,-47,568,-945,25.3,2.2,-26.2,25.6,2.3,-25.9,5.73,2.38,-24.8,30.6
2012-11-13 01:11:00,0.0,1.9163,0.0010,399.27,0.21,150.5,31.8,138.04,31.62,24.65,36.43,0.04,-272.75,-272.75,-47,568,-945,25.3,2.2,-26.2,25.6,2.2,-26.0,5.73,2.35,-24.8,30.6
2012-11-13 01:12:00,0.0,1.9172,0.0010,399.32,0.19,150.1,40.0,138.04,31.62,24.66,36.43,0.04,-272.75,-272.75,-47,567,-945,25.3,2.2,-26.4,25.6,2.2,-26.0,5.73,2.35,-24.9,30.6
2012-11-13 01:13:00,0.0,1.9165,0.0009,399.50,0.20,149.6,28.5,138.04,31.62,24.66,36.42,0.04,-272.75,-272.74,-47,567,-945,25.3,2.2,-26.4,25.6,2.2,-26.1,5.73,2.38,-24.9,30.6
2012-11-13 01:14:00,0.0,1.9163,0.0014,399.40,0.23,147.8,35.7,138.04,31.62,24.66,36.42,0.04,-272.75,-272.75,-47,567,-945,25.3,2.2,-26.3,25.5,2.2,-26.2,5.73,2.43,-24.8,30.6
2012-11-13 01:15:00,0.0,1.9176,0.0009,399.39,0.20,152.5,32.5,138.04,31.62,24.66,36.43,0.04,-272.75,-272.75,-47,567,-945,25.3,2.2,-26.5,25.6,2.2,-26.2,5.73,2.41,-24.8,30.6
2012-11-13 01:16:00,0.0,1.9177,0.0009,399.43,0.21,153.1,35.8,138.04,31.62,24.66,36.43,0.04,-272.75,-272.75,-47,567,-945,25.3,2.2,-26.5,25.6,2.2,-26.3,5.73,2.35,-24.8,30.7
2012-11-13 01:17:00,0.0,1.9177,0.0012,399.41,0.26,150.4,30.5,138.04,31.62,24.66,36.43,0.04,-272.75,-272.75,-46,567,-945,25.3,2.2,-26.6,25.6,2.2,-26.3,5.73,2.34,-24.8,30.6
2012-11-13 01:18:00,0.0,1.9182,0.0010,399.46,0.19,150.6,29.8,138.04,31.62,24.65,36.43,0.04,-272.75,-272.75,-47,567,-945,25.4,2.1,-26.7,25.6,2.2,-26.4,5.73,2.39,-24.8,30.7
2012-11-13 01:19:00,0.0,1.9177,0.0010,399.42,0.23,143.6,28.4,138.04,31.62,24.66,36.42,0.04,-272.75,-272.75,-47,567,-945,25.4,2.1,-26.7,25.6,2.1,-26.5,5.73,2.43,-24.8,30.7
2012-11-13 01:20:00,0.0,1.9168,0.0010,399.31,0.20,149.3,32.7,138.04,31.62,24.66,36.43,0.04,-272.75,-272.75,-47,567,-945,25.4,2.1,-26.8,25.6,2.1,-26.5,5.73,2.40,-24.8,30.7
2012-11-13 01:21:00,0.0,1.9173,0.0009,399.36,0.18,149.8,33.8,138.04,31.63,24.65,36.42,0.04,-272.75,-272.75,-47,567,-945,25.4,2.1,-26.8,25.7,2.1,-26.5,5.73,2.34,-24.8,30.7
2012-11-13 01:22:00,0.0,1.9172,0.0008,399.39,0.21,154.7,31.4,138.04,31.63,24.65,36.42,0.04,-272.75,-272.75,-47,567,-945,25.4,2.1,-26.8,25.7,2.1,-26.5,5.73,2.34,-24.8,30.7
2012-11-13 01:23:00,0.0,1.9162,0.0009,399.35,0.19,155.0,28.0,138.04,31.63,24.65,36.43,0.04,-272.75,-272.75,-47,567,-945,25.5,2.1,-26.8,25.7,2.1,-26.5,5.73,2.40,-24.8,30.7
2012-11-13 01:24:00,0.0,1.9161,0.0011,399.31,0.23,160.4,31.2,138.04,31.63,24.66,36.42,0.04,-272.75,-272.75,-47,568,-945,25.5,2.1,-26.8,25.7,2.1,-26.5,5.73,2.42,-24.8,30.8
2012-11-13 01:25:00,0.0,1.9163,0.0013,399.23,0.24,160.1,31.2,138.04,31.63,24.66,36.43,0.04,-272.75,-272.75,-47,568,-945,25.5,2.1,-26.8,25.7,2.1,-26.5,5.73,2.37,-24.8,30.8
2012-11-13 01:26:00,0.0,1.9164,0.0009,399.30,0.24,156.8,33.3,138.04,31.64,24.66,36.43,0.04,-272.75,-272.75,-47,568,-945,25.5,2.1,-26.8,25.7,2.1,-26.5,5.73,2.33,-24.7,30.8
2012-11-13 01:27:00,0.0,1.9159,0.0009,399.29,0.23,151.7,33.9,138.04,31.64,24.66,36.43,0.04,-272.75,-272.75,-47,568,-945,25.5,2.1,-26.7,25.7,2.1,-26.5,5.73,2.36,-24.8,30.8
2012-11-13 01:28:00,0.0,1.9166,0.0011,399.28,0.20,150.7,33.1,138.04,31.64,24.66,36.43,0.04,-272.75,-272.75,-47,568,-945,25.6,2.1,-26.9,25.7,2.1,-26.6,5.73,2.41,-24.8,30.8
2012-11-13 01:29:00,0.0,1.9173,0.0008,399.41,0.19,154.5,29.7,138.04,31.64,24.65,36.43,0.04,-272.75,-272.75,-47,568,-945,25.6,2.1,-26.9,25.7,2.1,-26.6,5.73,2.42,-24.8,30.8
2012-11-13 01:30:00,0.0,1.9187,0.0011,399.49,0.20,143.9,34.4,138.04,31.65,24.66,36.43,0.04,-272.74,-272.75,-47,568,-945,25.5,2.1,-26.9,25.7,2.1,-26.6,5.73,2.38,-24.8,30.7
2012-11-13 01:31:00,0.0,1.9188,0.0011,399.35,0.27,150.1,31.8,138.04,31.64,24.65,36.43,0.04,-272.75,-272.75,-47,568,-945,25.5,2.1,-27.0,25.7,2.1,-26.7,5.73,2.35,-24.9,30.7
2012-11-13 01:32:00,0.0,1.9177,0.0013,399.49,0.20,146.5,27.6,138.04,31.64,24.65,36.42,0.04,-272.75,-272.75,-47,568,-945,25.4,2.1,-27.0,25.7,2.1,-26.7,5.73,2.35,-25.0,30.7
2012-11-13 01:33:00,0.0,1.9182,0.0015,399.41,0.20,142.7,39.0,138.04,31.64,24.66,36.42,0.04,-272.74,-272.74,-47,568,-945,25.4,2.1,-27.0,25.6,2.1,-26.7,5.73,2.37,-25.0,30.7
2012-11-13 01:34:00,0.0,1.9176,0.0012,399.42,0.22,137.7,29.6,138.04,31.64,24.66,36.42,0.04,-272.75,-272.75,-47,568,-945,25.3,2.1,-27.0,25.6,2.1,-26.7,5.73,2.40,-25.1,30.7
2012-11-13 01:35:00,0.0,1.9171,0.0010,399.38,0.22,132.9,30.1,138.04,31.64,24.66,36.42,0.04,-272.75,-272.75,-47,568,-945,25.3,2.1,-27.1,25.6,2.1,-26.7,5.73,2.43,-25.1,30.7
2012-11-13 01:36:00,0.0,1.9169,0.0012,399.37,0.21,138.1,32.3,138.04,31.63,24.65,36.43,0.04,-272.75,-272.75,-47,567,-945,25.3,2.1,-27.0,25.6,2.1,-26.8,5.73,2.39,-25.1,30.7
2012-11-13 01:37:00,0.0,1.9169,0.0012,399.33,0.20,133.6,28.6,138.04,31.63,24.65,36.43,0.04,-272.75,-272.75,-47,567,-945,25.3,2.1,-27.0,25.6,2.1,-26.8,5.73,2.34,-25.1,30.7
2012-11-13 01:38:00,0.0,1.9172,0.0011,399.34,0.20,139.3,29.6,138.04,31.63,24.66,36.43,0.04,-272.75,-272.75,-47,567,-945,25.3,2.0,-27.2,25.6,2.1,-26.8,5.73,2.34,-25.1,30.7
2012-11-13 01:39:00,0.0,1.9161,0.0009,399.22,0.21,137.7,33.7,138.04,31.63,24.66,36.43,0.04,-272.75,-272.75,-46,567,-945,25.3,2.0,-27.1,25.6,2.1,-26.8,5.73,2.40,-25.1,30.7
2012-11-13 01:40:00,0.0,1.9154,0.0010,399.32,0.24,140.8,28.9,138.04,31.63,24.66,36.43,0.04,-272.75,-272.75,-47,568,-945,25.4,2.0,-27.1,25.6,2.1,-26.8,5.73,2.43,-25.1,30.7
2012-11-13 01:41:00,0.0,1.9162,0.0010,399.38,0.21,131.4,31.8,138.04,31.63,24.66,36.42,0.04,-272.75,-272.75,-47,568,-945,25.4,2.0,-27.1,25.7,2.0,-26.9,5.73,2.39,-25.1,30.7
2012-11-13 01:42:00,0.0,1.9161,0.0011,399.25,0.22,129.7,31.8,138.04,31.64,24.66,36.43,0.04,-272.75,-272.75,-47,567,-945,25.4,2.0,-27.1,25.7,2.0,-27.0,5.73,2.34,-25.1,30.7
2012-11-13 01:43:00,0.0,1.9171,0.0010,399.46,0.23,139.3,31.8,138.04,31.64,24.66,36.42,0.04,-272.75,-272.74,-47,568,-945,25.4,2.0,-27.1,25.7,2.0,-27.0,5.73,2.35,-25.1,30.7
2012-11-13 01:44:00,0.0,1.9169,0.0009,399.37,0.25,135.3,32.6,138.04,31.64,24.66,36.42,0.04,-272.75,-272.75,-47,568,-945,25.5,2.0,-27.2,25.7,2.0,-26.9,5.73,2.40,-25.1,30.7
2012-11-13 01:45:00,0.0,1.9185,0.0008,399.49,0.20,132.4,31.1,138.04,31.64,24.66,36.42,0.04,-272.75,-272.75,-47,568,-945,25.4,2.0,-27.2,25.7,2.0,-26.9,5.73,2.43,-25.0,30.8
2012-11-13 01:46:00,0.0,1.9172,0.0009,399.41,0.20,137.4,28.7,138.04,31.64,24.66,36.42,0.04,-272.74,-272.75,-47,568,-945,25.4,2.0,-27.1,25.7,2.0,-27.0,5.73,2.39,-24.8,30.7
2012-11-13 01:47:00,0.0,1.9175,0.0012,399.38,0.22,129.4,33.3,138.04,31.64,24.65,36.42,0.04,-272.75,-272.75,-47,568,-945,25.4,2.0,-27.1,25.6,2.0,-26.9,5.73,2.35,-24.8,30.6
2012-11-13 01:48:00,0.0,1.9165,0.0009,399.31,0.24,136.2,29.2,138.04,31.64,24.66,36.43,0.04,-272.75,-272.75,-47,568,-945,25.4,2.0,-27.2,25.6,2.1,-26.9,5.73,2.35,-24.8,30.6
2012-11-13 01:49:00,0.0,1.9162,0.0010,399.33,0.21,128.7,30.4,138.04,31.64,24.65,36.43,0.04,-272.75,-272.75,-47,568,-945,25.3,2.1,-27.1,25.6,2.1,-26.8,5.73,2.37,-24.8,30.5
2012-11-13 01:50:00,0.0,1.9160,0.0011,399.22,0.23,131.8,32.1,138.04,31.64,24.66,36.43,0.04,-272.75,-272.75,-47,568,-945,25.3,2.1,-27.0,25.6,2.1,-26.7,5.73,2.40,-24.9,30.5
2012-11-13 01:51:00,0.0,1.9169,0.0012,399.34,0.22,128.6,29.9,138.04,31.64,24.66,36.43,0.04,-272.75,-272.75,-47,567,-945,25.3,2.1,-27.1,25.5,2.1,-26.8,5.73,2.43,-24.9,30.6
2012-11-13 01:52:00,0.0,1.9179,0.0011,399.34,0.21,117.8,28.9,138.04,31.64,24.65,36.43,0.04,-272.75,-272.75,-47,567,-945,25.3,2.1,-27.1,25.6,2.1,-26.7,5.73,2.41,-25.0,30.6
2012-11-13 01:53:00,0.0,1.9172,0.0009,399.43,0.19,122.4,27.7,138.04,31.64,24.65,36.42,0.04,-272.75,-272.75,-47,567,-945,25.3,2.1,-27.0,25.5,2.1,-26.7,5.73,2.36,-25.0,30.6
2012-11-13 01:54:00,0.0,1.9176,0.0011,399.38,0.23,123.5,29.8,138.04,31.63,24.66,36.43,0.04,-272.75,-272.75,-47,567,-945,25.3,2.1,-27.1,25.6,2.1,-26.7,5.73,2.34,-25.0,30.6
2012-11-13 01:55:00,0.0,1.9166,0.0009,399.32,0.21,116.6,30.0,138.04,31.63,24.66,36.43,0.04,-272.75,-272.75,-47,567,-945,25.3,2.1,-27.1,25.5,2.1,-26.7,5.73,2.38,-25.0,30.6
2012-11-13 01:56:00,0.0,1.9162,0.0010,399.36,0.26,128.0,38.5,138.04,31.64,24.66,36.43,0.04,-272.75,-272.75,-47,567,-945,25.3,2.1,-27.1,25.6,2.1,-26.7,5.73,2.42,-25.0,30.7
2012-11-13 01:57:00,0.0,1.9163,0.0010,399.30,0.18,123.4,25.7,138.04,31.64,24.66,36.43,0.04,-272.74,-272.74,-47,567,-945,25.3,2.1,-27.0,25.6,2.1,-26.7,5.73,2.42,-25.0,30.7
2012-11-13 01:58:00,0.0,1.9165,0.0008,399.42,0.20,123.1,32.3,138.04,31.64,24.65,36.42,0.04,-272.75,-272.75,-47,567,-945,25.3,2.1,-27.0,25.6,2.1,-26.7,5.73,2.37,-25.0,30.7
2012-11-13 01:59:00,0.0,1.9176,0.0009,399.38,0.18,130.5,32.5,138.04,31.64,24.65,36.43,0.04,-272.75,-272.75,-47,567,-945,25.3,2.1,-27.0,25.6,2.1,-26.7,5.73,2.33,-25.0,30.6
2012-11-13 02:00:00,0.0,1.9173,0.0010,399.38,0.20,121.8,29.7,138.04,31.64,24.65,36.43,0.04,-272.74,-272.75,-47,567,-945,25.3,2.1,-27.0,25.6,2.1,-26.7,5.73,2.36,-25.0,30.7
2012-11-13 02:01:00,0.0,1.9166,0.0010,399.46,0.17,125.4,27.6,138.04,31.64,24.66,36.42,0.04,-272.75,-272.75,-47,567,-945,25.4,2.1,-27.0,25.6,2.1,-26.7,5.73,2.42,-25.0,30.7
2012-11-13 02:02:00,0.0,1.9181,0.0009,399.44,0.22,126.5,30.4,138.04,31.64,24.65,36.43,0.04,-272.75,-272.75,-47,567,-945,25.4,2.1,-27.0,25.6,2.1,-26.7,5.73,2.42,-25.0,30.7
2012-11-13 02:03:00,0.0,1.9173,0.0008,399.36,0.17,115.6,30.5,138.04,31.64,24.66,36.43,0.04,-272.75,-272.75,-47,567,-945,25.4,2.1,-26.8,25.6,2.1,-26.6,5.73,2.37,-25.0,30.7
2012-11-13 02:04:00,0.0,1.9171,0.0010,399.38,0.24,121.8,32.5,138.04,31.64,24.66,36.42,0.04,-272.75,-272.75,-47,567,-945,25.4,2.1,-26.8,25.7,2.1,-26.5,5.73,2.33,-25.0,30.7
2012-11-13 02:05:00,0.0,1.9164,0.0011,399.30,0.24,120.5,27.6,138.04,31.64,24.65,36.43,0.04,-272.75,-272.75,-47,567,-945,25.5,2.1,-26.8,25.7,2.1,-26.5,5.73,2.36,-25.0,30.7
2012-11-13 02:06:00,0.0,1.9163,0.0010,399.37,0.22,124.4,32.6,138.04,31.65,24.66,36.43,0.04,-272.74,-272.75,-47,568,-945,25.5,2.1,-26.7,25.7,2.1,-26.5,5.73,2.41,-25.0,30.8
2012-11-13 02:07:00,0.0,1.9163,0.0008,399.40,0.22,120.8,31.4,138.04,31.65,24.65,36.42,0.04,-272.75,-272.75,-47,567,-945,25.5,2.1,-26.6,25.7,2.2,-26.4,5.73,2.42,-25.1,30.8
2012-11-13 02:08:00,0.0,1.9167,0.0011,399.38,0.22,125.4,37.0,138.04,31.65,24.66,36.43,0.04,-272.75,-272.75,-47,568,-945,25.5,2.1,-26.7,25.7,2.1,-26.4,5.73,2.37,-25.1,30.7
2012-11-13 02:09:00,0.0,1.9168,0.0011,399.44,0.18,116.9,31.7,138.04,31.65,24.65,36.42,0.04,-272.75,-272.75,-47,568,-945,25.4,2.1,-26.6,25.7,2.2,-26.4,5.73,2.35,-25.1,30.7
2012-11-13 02:10:00,0.0,1.9162,0.0009,399.44,0.22,107.8,29.6,138.04,31.65,24.66,36.43,0.04,-272.74,-272.75,-47,568,-945,25.4,2.1,-26.6,25.6,2.1,-26.4,5.73,2.35,-25.2,30.7
2012-11-13 02:11:00,0.0,1.9162,0.0009,399.37,0.17,114.6,25.9,138.04,31.64,24.65,36.43,0.04,-272.75,-272.75,-47,568,-945,25.4,2.1,-26.6,25.6,2.2,-26.4,5.73,2.39,-25.2,30.7
2012-11-13 02:12:00,0.0,1.9162,0.0009,399.40,0.23,110.5,31.7,138.04,31.64,24.66,36.43,0.04,-272.75,-272.75,-47,568,-945,25.4,2.1,-26.7,25.6,2.2,-26.4,5.73,2.42,-25.2,30.7
2012-11-13 02:13:00,0.0,1.9171,0.0010,399.40,0.23,119.9,30.6,138.04,31.64,24.65,36.43,0.04,-272.74,-272.75,-47,567,-945,25.4,2.1,-26.7,25.6,2.2,-26.4,5.73,2.41,-25.2,30.7
2012-11-13 02:14:00,0.0,1.9170,0.0009,399.48,0.16,114.6,34.3,138.04,31.64,24.65,36.42,0.04,-272.75,-272.75,-47,567,-945,25.4,2.1,-26.7,25.6,2.1,-26.5,5.73,2.36,-25.2,30.7
2012-11-13 02:15:00,0.0,1.9163,0.0009,399.39,0.19,117.2,30.0,138.04,31.64,24.66,36.42,0.04,-272.75,-272.75,-47,567,-945,25.3,2.1,-26.7,25.6,2.1,-26.6,5.73,2.34,-25.3,30.6
2012-11-13 02:16:00,0.0,1.9168,0.0009,399.42,0.23,108.1,28.2,138.04,31.64,24.65,36.42,0.04,-272.75,-272.75,-47,567,-945,25.3,2.1,-26.8,25.6,2.1,-26.6,5.73,2.37,-25.3,30.6